Starlink 32921

operational
NORAD ID: 62920 Int'l Des: 2025-027 Owner: SPXS Country: US Constellation: starlink
LEOCIRCULAR

Über Starlink 32921

Beschreibung wird geladen...

Live-Position

3D-Globus wird geladen...

Nächste Überflüge

Höhenverlauf

Altitude vs Time

uPlot chart will show altitude changes over time

Zweizeiliger Elementsatz

1 62920U 25027P 25351.10529329 .00022099 00000-0 80957-3 0 9996
2 62920 42.9983 235.1319 0001284 278.8008 81.2699 15.27604180 48919
Epoch: 17. Dez. 2025 • Age: 12 hours

Aktueller Status

Höhe 486.5 km
Geschwindigkeit 7.62 km/s
Subsatellitenpunkt -18.09°S, 130.06°E
Startdatum 8. Feb. 2025
Alter 0.8 years
Typ internet

Technische Details

Klassifizierung Payload
Masse 730.00 kg
Trockenmasse 700.00 kg
Gesamtmasse 730.00 kg
Länge 0.30 m
Durchmesser 4.10 m
Spannweite 29.00 m
Form Box + pan
Hersteller SPXS
Bus-Typ Starlink V2M
Phasenstatus In Orbit
Besitzer/Staat SPXS/US

Große Konstellationen

Loading constellations...